This is the latest recevied weather packets stored in our database for station/object OE-11272. If no packets are shown the sender has not sent any weather packets the latest 10 day(s).
| Time | Temp. | Humidity | Pressure | Rain* | Wind** | Luminosity | Snow |
|---|---|---|---|---|---|---|---|
| 1788001899 | 22.22° C | 54% | 1015.6 hPa | 0 mm | - | 381 W/m² | - |
| 1788001525 | 22.22° C | 56% | 1015.5 hPa | 0 mm | - | 319 W/m² | - |
| 1788000926 | 22.22° C | 54% | 1015.6 hPa | 0 mm | - | 356 W/m² | - |
| 1788000099 | 22.22° C | 55% | 1015.6 hPa | 0 mm | - | 606 W/m² | - |
| 1787999726 | 22.22° C | 59% | 1015.7 hPa | 0 mm | - | 550 W/m² | - |
| 1787999126 | 21.67° C | 61% | 1015.7 hPa | 0 mm | - | 543 W/m² | - |
| 1787998299 | 21.67° C | 62% | 1015.7 hPa | 0 mm | - | 431 W/m² | - |
| 1787997925 | 21.11° C | 64% | 1015.9 hPa | 0 mm | - | 406 W/m² | - |
| 1787997326 | 20.56° C | 67% | 1015.9 hPa | 0 mm | - | 344 W/m² | - |
| 1787996499 | 20.56° C | 67% | 1016.1 hPa | 0 mm | - | 543 W/m² | - |
| 1787996126 | 20° C | 68% | 1016.3 hPa | 0 mm | - | 375 W/m² | - |
| 1787995526 | 20° C | 70% | 1016.5 hPa | 0 mm | - | 294 W/m² | - |
| 1787994699 | 20° C | 74% | 1016.4 hPa | 0 mm | - | 387 W/m² | - |
| 1787994326 | 19.44° C | 76% | 1016.6 hPa | 0 mm | - | 219 W/m² | - |
| 1787993726 | 19.44° C | 74% | 1016.7 hPa | 0 mm | - | 212 W/m² | - |
| 1787992898 | 18.89° C | 77% | 1016.7 hPa | 0 mm | - | 237 W/m² | - |
| 1787992525 | 18.89° C | 81% | 1016.7 hPa | 0 mm | - | 319 W/m² | - |
| 1787991925 | 18.33° C | 82% | 1016.8 hPa | 0 mm | - | 350 W/m² | - |
| 1787991099 | 18.33° C | 82% | 1016.7 hPa | 0 mm | - | 194 W/m² | - |
| 1787990725 | 18.33° C | 80% | 1016.9 hPa | 0 mm | - | 162 W/m² | - |
| 1787990126 | 18.33° C | 82% | 1016.9 hPa | 0 mm | - | 206 W/m² | - |
| 1787989298 | 18.33° C | 84% | 1016.9 hPa | 0 mm | - | 231 W/m² | - |
| 1787988325 | 17.22° C | 87% | 1016.9 hPa | 0 mm | - | 144 W/m² | - |
| 1787987499 | 17.22° C | 87% | 1016.9 hPa | 0 mm | - | 137 W/m² | - |
| 1787987126 | 17.22° C | 85% | 1017 hPa | 0 mm | - | 169 W/m² | - |
* Rain latest hour (hover to see other rain measurements)
** Current wind speed in m/s (hover to see current wind gust speed)